Weather Roundup
Issued by NWS

Home | Current Version | Previous Version | Text Only | Print | Product List | Glossary On
Versions: 1 2 3 4 5 6 7 8 9 10 11 12 13 14 15 16 17 18 19 20 21 22 23 24 25 26 27 28 29 30 31 32 33 34 35 36 37 38 39 40 41 42 43 44 45 46 47 48 49 50
363
NZUS93 KARX 110510
HRRWXR

CURRENT HOURLY OBSERVATIONS ACROSS
MUCH OF THE UPPER MISSISSIPPI VALLEY
NATIONAL WEATHER SERVICE LA CROSSE WI
1100 PM CST WED FEB 10 2016


...SOUTHEAST MINNESOTA...


CITY           SKY/WX    TMP DP  RH WIND       PRES   REMARKS
ROCHESTER      CLOUDY     6  -2  69 N7        30.21R WCI  -6
ROCHESTER/MAYO CLOUDY     8  -2  65 NW5       30.23R WCI  -1
WINONA         CLOUDY    10   1  67 CALM      30.26R
AUSTIN         CLOUDY     5  -2  72 N5        30.20S WCI  -4
ALBERT LEA     CLOUDY     7   0  72 CALM      30.21R
DODGE CENTER   CLOUDY     7  -2  66 N3        30.20R
PRESTON        CLOUDY     5  -3  69 N6        30.20R WCI  -6
OWATONNA       CLOUDY     9  -2  61 CALM      30.22S
FARIBAULT        N/A      9   0  66 CALM      30.24S
$$

...ELSEWHERE IN MINNESOTA...


CITY           SKY/WX    TMP DP  RH WIND       PRES   REMARKS
MINNEAPOLIS    CLOUDY    10  -4  53 NW3       30.27R
INTNL FALLS    CLOUDY   -19 -26  70 CALM      30.22F
DULUTH         CLEAR     -3 -12  65 N10       30.16F WCI -20
RED WING       CLOUDY     9  -4  56 CALM      30.26R
REDWOOD FALLS  CLOUDY    13   3  64 CALM      30.26R HAZE
MANKATO        CLOUDY    10   0  61 N6        30.25R WCI   1
WORTHINGTON    CLOUDY    10   3  72 NE9       30.22R WCI  -2
FAIRMONT       CLOUDY    10   1  67 N6        30.22R WCI   1
$$

...SOUTHWEST WISCONSIN...


CITY           SKY/WX    TMP DP  RH WIND       PRES   REMARKS
LA CROSSE      CLOUDY     6  -3  66 N3        30.24S
PRAIRIE DU CHI CLOUDY    11  -3  53 N6        30.24R WCI   2
BOSCOBEL       PTCLDY     7  -2  66 CALM      30.24R
LONE ROCK      CLOUDY     5  -3  69 W8        30.23R WCI  -8
PLATTEVILLE    CLOUDY    10   1  66 N9        30.18S WCI  -3
FORT MC COY    CLOUDY     0  -5  80 CALM      30.23R
CAMP DOUGLAS   MOCLDY     1  -4  78 W6        30.20R WCI -10
VIROQUA        MOCLDY     3  -4  70 NW6       30.17R WCI  -8
WIS DELLS      CLOUDY     6  -4  64 NW3       30.18R
$$

...ELSEWHERE IN WISCONSIN...


CITY           SKY/WX    TMP DP  RH WIND       PRES   REMARKS
MILWAUKEE      MOCLDY     9  -2  61 W9        30.16R WCI  -4
MADISON        CLOUDY     7  -3  64 NW5       30.17R WCI  -2
GREEN BAY      CLEAR      2  -7  66 NW5       30.17R WCI  -8
EAU CLAIRE     CLOUDY     6  -5  60 NW5       30.22R WCI  -3
BLACK RVR FLS  FAIR       6  -4  63 W3        30.22R
MEDFORD        CLEAR     -1  -6  80 N5        30.13R WCI -12
WAUSAU         CLOUDY     4  -4  69 NW6       30.13S WCI  -7
WIS RAPIDS     CLEAR      1  -7  68 NW5       30.18R WCI  -9
MARSHFIELD     CLEAR      3  -6  66 N7        30.14R WCI  -9
RICE LAKE      CLEAR      1  -7  69 CALM      30.22R
$$

...NORTHEAST IOWA...


CITY           SKY/WX    TMP DP  RH WIND       PRES   REMARKS
WATERLOO       CLOUDY     7  -2  66 N8        30.21R WCI  -6
DUBUQUE        CLOUDY    11   2  67 N6        30.17S WCI   1
DECORAH        CLOUDY     7  -2  66 NW5       30.19R WCI  -2
MASON CITY     CLOUDY     2  -3  80 N5        30.22R WCI  -8
CHARLES CITY   CLOUDY     3  -4  72 NW3       30.22R
OELWEIN        CLOUDY     7  -2  66 N8        30.21R WCI  -6
$$

...ELSEWHERE IN IOWA...


CITY           SKY/WX    TMP DP  RH WIND       PRES   REMARKS
DES MOINES     CLOUDY    17   9  70 NE9       30.18S WCI   6
IOWA CITY      CLOUDY    14   3  61 N9        30.22R WCI   2
FORT DODGE     CLOUDY    10   1  67 NE5       30.23R WCI   2
MARSHALLTOWN   CLOUDY    11   2  67 N12       30.20R WCI  -3
CEDAR RAPIDS   CLOUDY    12   2  64 N10       30.19R WCI  -1
$$

...NORTHERN ILLINOIS...


CITY           SKY/WX    TMP DP  RH WIND       PRES   REMARKS
CHICAGO-OHARE  PTCLDY    10   1  67 NW7       30.17R WCI  -1
CHICAGO-MIDWAY MOCLDY    13   0  56 NW7       30.18R WCI   3
MOLINE         CLOUDY    14   2  58 N7        30.20R WCI   4
ROCKFORD       CLOUDY    11   1  64 N6        30.20S WCI   1
PEORIA         CLEAR     15   7  70 CALM      30.19R
$$

NOTE: "FAIR" INDICATES FEW OR NO CLOUDS BELOW 12,000 FEET WITH NO
SIGNIFICANT WEATHER AND/OR OBSTRUCTIONS TO VISIBILITY. WIND
SPEEDS ARE IN MILES-PER-HOUR.




USA.gov is the U.S. government's official web portal to all federal, state and local government web resources and services.